• In Austria
  • List of Countries
  • For 7 days
  • Water Temperature
  • Satellite Maps
  • Weather Map
  • News
  • Weather Widgets
  • user-avatar
    Login

    Hourly Weather Tskhinvali

    Today, 21 September, Friday

    Time Temperature Precipitation Wind Pressure Humidity
    00:00 +15°C° 0 mm 2 mps 685 mmHg 86%
    01:00 +15°C° 0 mm 2 mps 685 mmHg 86%
    02:00 +14°C° 0 mm 2 mps 685 mmHg 87%
    03:00 +14°C° 0 mm 2 mps 685 mmHg 88%
    04:00 +14°C° 0 mm 2 mps 685 mmHg 87%
    05:00 +14°C° 0 mm 2 mps 684 mmHg 87%
    06:00 +14°C° 0 mm 2 mps 684 mmHg 87%
    07:00 +16°C° 0 mm 2 mps 685 mmHg 78%
    08:00 +18°C° 0 mm 2 mps 685 mmHg 69%
    09:00 +20°C° 0 mm 2 mps 685 mmHg 61%
    10:00 +21°C° 0 mm 3 mps 685 mmHg 56%
    11:00 +24°C° 0 mm 3 mps 686 mmHg 52%
    12:00 +25°C° 0 mm 3 mps 686 mmHg 47%
    13:00 +25°C° 0 mm 3 mps 685 mmHg 47%
    14:00 +25°C° 0 mm 2 mps 685 mmHg 46%
    15:00 +25°C° 0 mm 2 mps 685 mmHg 46%
    16:00 +24°C° 0.1 mm 2 mps 685 mmHg 53%
    17:00 +22°C° 0.1 mm 1 mps 685 mmHg 60%
    18:00 +20°C° 0.1 mm 1 mps 684 mmHg 68%
    19:00 +19°C° 0 mm 1 mps 684 mmHg 70%
    20:00 +18°C° 0 mm 1 mps 685 mmHg 72%
    21:00 +17°C° 0 mm 2 mps 685 mmHg 74%
    22:00 +16°C° 0 mm 2 mps 685 mmHg 75%
    23:00 +16°C° 0 mm 2 mps 685 mmHg 75%

    Tomorrow, 22 September, Saturday

    Time Temperature Precipitation Wind Pressure Humidity
    00:00 +15°C° 0 mm 2 mps 685 mmHg 76%
    01:00 +15°C° 0 mm 2 mps 685 mmHg 77%
    02:00 +15°C° 0 mm 2 mps 685 mmHg 77%
    03:00 +15°C° 0 mm 2 mps 685 mmHg 78%
    04:00 +14°C° 0 mm 2 mps 685 mmHg 79%
    05:00 +14°C° 0 mm 2 mps 685 mmHg 79%
    06:00 +14°C° 0 mm 2 mps 685 mmHg 79%
    07:00 +16°C° 0 mm 2 mps 685 mmHg 72%
    08:00 +18°C° 0 mm 2 mps 685 mmHg 64%
    09:00 +20°C° 0 mm 3 mps 686 mmHg 57%
    10:00 +21°C° 0 mm 3 mps 686 mmHg 55%
    11:00 +22°C° 0 mm 3 mps 686 mmHg 53%
    12:00 +23°C° 0 mm 4 mps 686 mmHg 50%
    13:00 +24°C° 0.2 mm 3 mps 685 mmHg 52%
    14:00 +24°C° 0.2 mm 3 mps 685 mmHg 53%
    15:00 +24°C° 0.2 mm 3 mps 685 mmHg 54%
    16:00 +21°C° 0.2 mm 3 mps 685 mmHg 61%
    17:00 +20°C° 0.2 mm 2 mps 684 mmHg 67%
    18:00 +19°C° 0.2 mm 1 mps 684 mmHg 74%
    19:00 +18°C° 0 mm 1 mps 684 mmHg 76%
    20:00 +16°C° 0 mm 1 mps 684 mmHg 78%
    21:00 +16°C° 0 mm 1 mps 684 mmHg 81%
    22:00 +15°C° 0 mm 1 mps 684 mmHg 80%
    23:00 +15°C° 0 mm 1 mps 684 mmHg 80%

    Day after tomorrow, 23 September, Sunday

    Time Temperature Precipitation Wind Pressure Humidity
    00:00 +15°C° 0 mm 1 mps 684 mmHg 80%
    01:00 +15°C° 0 mm 1 mps 684 mmHg 79%
    02:00 +14°C° 0 mm 1 mps 684 mmHg 78%
    03:00 +14°C° 0 mm 1 mps 684 mmHg 77%
    04:00 +14°C° 0 mm 1 mps 684 mmHg 78%
    05:00 +14°C° 0 mm 1 mps 684 mmHg 79%
    06:00 +14°C° 0 mm 1 mps 683 mmHg 79%
    07:00 +16°C° 0 mm 1 mps 684 mmHg 73%
    08:00 +18°C° 0 mm 2 mps 684 mmHg 66%
    09:00 +20°C° 0 mm 2 mps 685 mmHg 59%
    10:00 +21°C° 0.1 mm 2 mps 685 mmHg 56%
    11:00 +23°C° 0.1 mm 2 mps 685 mmHg 53%
    12:00 +24°C° 0.1 mm 2 mps 685 mmHg 50%
    13:00 +24°C° 0.2 mm 3 mps 684 mmHg 49%
    14:00 +24°C° 0.2 mm 3 mps 684 mmHg 49%
    15:00 +23°C° 0.2 mm 4 mps 684 mmHg 49%
    16:00 +21°C° 0.1 mm 3 mps 684 mmHg 59%
    17:00 +19°C° 0.1 mm 3 mps 683 mmHg 68%
    18:00 +17°C° 0.1 mm 2 mps 683 mmHg 77%
    19:00 +16°C° 0 mm 2 mps 683 mmHg 82%
    20:00 +16°C° 0 mm 2 mps 684 mmHg 88%
    21:00 +15°C° 0 mm 2 mps 684 mmHg 93%
    22:00 +15°C° 0 mm 2 mps 684 mmHg 93%
    23:00 +15°C° 0 mm 2 mps 684 mmHg 93%

    24 September, Monday

    Time Temperature Precipitation Wind Pressure Humidity
    00:00 +15°C° 0 mm 2 mps 684 mmHg 93%
    01:00 +14°C° 0.1 mm 2 mps 684 mmHg 93%
    02:00 +14°C° 0.1 mm 2 mps 684 mmHg 94%
    03:00 +14°C° 0.1 mm 2 mps 684 mmHg 94%
    04:00 +14°C° 0.2 mm 2 mps 684 mmHg 93%
    05:00 +14°C° 0.2 mm 2 mps 684 mmHg 92%
    06:00 +14°C° 0.2 mm 2 mps 684 mmHg 91%
    07:00 +14°C° 0.1 mm 2 mps 684 mmHg 88%
    08:00 +15°C° 0.1 mm 2 mps 684 mmHg 85%
    09:00 +14°C° 0.1 mm 3 mps 684 mmHg 82%
    10:00 +14°C° 0.1 mm 3 mps 684 mmHg 81%
    11:00 +16°C° 0.1 mm 3 mps 684 mmHg 80%
    12:00 +16°C° 0.1 mm 3 mps 684 mmHg 79%
    13:00 +16°C° 0.1 mm 3 mps 684 mmHg 80%
    14:00 +16°C° 0.1 mm 3 mps 683 mmHg 81%
    15:00 +14°C° 0.1 mm 3 mps 683 mmHg 81%
    16:00 +14°C° 0 mm 3 mps 683 mmHg 84%
    17:00 +14°C° 0 mm 2 mps 683 mmHg 87%
    18:00 +14°C° 0 mm 2 mps 683 mmHg 90%
    19:00 +13°C° 0 mm 2 mps 683 mmHg 92%
    20:00 +13°C° 0 mm 2 mps 683 mmHg 93%
    21:00 +13°C° 0 mm 1 mps 684 mmHg 95%
    22:00 +12°C° 0 mm 1 mps 683 mmHg 94%
    23:00 +12°C° 0 mm 1 mps 683 mmHg 93%

    25 September, Tuesday

    Time Temperature Precipitation Wind Pressure Humidity
    00:00 +11°C° 0 mm 1 mps 682 mmHg 92%
    01:00 +11°C° 0 mm 1 mps 682 mmHg 89%
    02:00 +10°C° 0 mm 1 mps 682 mmHg 86%
    03:00 +10°C° 0 mm 1 mps 681 mmHg 83%
    04:00 +10°C° 0 mm 1 mps 681 mmHg 79%
    05:00 +10°C° 0 mm 1 mps 681 mmHg 76%
    06:00 +10°C° 0 mm 1 mps 681 mmHg 73%
    07:00 +13°C° 0 mm 1 mps 681 mmHg 65%
    08:00 +16°C° 0 mm 2 mps 682 mmHg 57%
    09:00 +18°C° 0 mm 2 mps 682 mmHg 49%
    10:00 +20°C° 0 mm 2 mps 682 mmHg 45%
    11:00 +23°C° 0 mm 2 mps 682 mmHg 41%
    12:00 +24°C° 0 mm 2 mps 682 mmHg 36%
    13:00 +25°C° 0 mm 2 mps 682 mmHg 35%
    14:00 +25°C° 0 mm 3 mps 682 mmHg 33%
    15:00 +25°C° 0 mm 3 mps 681 mmHg 32%
    16:00 +23°C° 0 mm 2 mps 681 mmHg 39%
    17:00 +19°C° 0 mm 2 mps 681 mmHg 47%
    18:00 +16°C° 0 mm 1 mps 681 mmHg 55%
    19:00 +16°C° 0 mm 1 mps 681 mmHg 56%
    20:00 +15°C° 0 mm 1 mps 681 mmHg 58%
    21:00 +14°C° 0 mm 1 mps 681 mmHg 60%
    22:00 +13°C° 0 mm 1 mps 682 mmHg 60%
    23:00 +13°C° 0 mm 1 mps 682 mmHg 61%

    26 September, Wednesday

    Time Temperature Precipitation Wind Pressure Humidity
    00:00 +13°C° 0 mm 1 mps 682 mmHg 62%
    01:00 +12°C° 0 mm 1 mps 682 mmHg 63%
    02:00 +12°C° 0 mm 1 mps 682 mmHg 65%
    03:00 +12°C° 0 mm 1 mps 682 mmHg 67%
    04:00 +12°C° 0 mm 1 mps 682 mmHg 68%
    05:00 +12°C° 0 mm 1 mps 682 mmHg 68%
    06:00 +11°C° 0 mm 1 mps 682 mmHg 69%
    07:00 +14°C° 0 mm 1 mps 683 mmHg 61%
    08:00 +18°C° 0 mm 1 mps 683 mmHg 54%
    09:00 +20°C° 0 mm 2 mps 684 mmHg 47%
    10:00 +21°C° 0 mm 2 mps 684 mmHg 44%
    11:00 +24°C° 0 mm 3 mps 684 mmHg 42%
    12:00 +25°C° 0 mm 3 mps 684 mmHg 39%
    13:00 +25°C° 0 mm 3 mps 684 mmHg 40%
    14:00 +25°C° 0 mm 3 mps 684 mmHg 41%
    15:00 +25°C° 0 mm 3 mps 684 mmHg 41%
    16:00 +21°C° 0 mm 3 mps 683 mmHg 50%
    17:00 +19°C° 0 mm 2 mps 683 mmHg 59%
    18:00 +18°C° 0 mm 1 mps 683 mmHg 67%
    19:00 +16°C° 0 mm 1 mps 683 mmHg 70%
    20:00 +15°C° 0 mm 1 mps 684 mmHg 72%
    21:00 +14°C° 0 mm 1 mps 684 mmHg 75%
    22:00 +14°C° 0 mm 1 mps 684 mmHg 75%
    23:00 +14°C° 0 mm 1 mps 684 mmHg 75%
    Show more